User: anonymous   Login
Location: Clatteringshaws Loch
(55.0508°N, 4.2860°W)
Time: 15:52:30
(UTC+00:00)
Language:

ALOS - Orbit

View from above orbital plane
View from above orbital plane
View from above satellite
View from above satellite

Ground track
Ground track

The orbit data is extracted from the following two-line orbital elements,

1 28931U 06002A   16040.56213407  .00000654  00000-0  13895-3 0  9994
2 28931  97.9027  85.0809 0002451  85.2506 274.8977 14.62115361535329
Epoch (UTC): 09 February 2016 13:29:28
Eccentricity: 0.0002451
inclination: 97.9027°
perigee height: 684 km
apogee height: 688 km
right ascension of ascending node: 85.0809°
argument of perigee: 85.2506°
revolutions per day: 14.62115361
mean anomaly at epoch: 274.8977°
orbit number at epoch: 53532

The dashed part of the orbit path shows where the satellite is in the earth's shadow,  

DLR